CW2640 Weather Reports


Display with metric or nautical units.
time (UTC)temp
F
wind
direction
speed
MPH
gust
MPH
rain 1hr
in
rain 24hr
in
rain mn
in
humidity
%
barometer
mb
20260507195344 69 80 0.0 0.0 0.00 0.38 0.38 71 1014.7
20260507192341 70 80 0.0 0.0 0.00 0.38 0.38 69 1014.8
20260507185336 71 80 0.0 0.0 0.00 0.38 0.38 70 1015.0
20260507182335 70 80 0.0 0.0 0.00 0.38 0.38 68 1014.8
20260507175331 68 80 0.0 0.0 0.00 0.38 0.38 70 1015.1
20260507172330 67 80 0.0 0.0 0.00 0.38 0.38 76 1016.1
20260507165326 65 80 0.0 0.0 0.00 0.38 0.38 80 1016.1
20260507162323 64 80 0.0 0.0 0.00 0.38 0.38 89 1015.9
20260507155319 63 80 0.0 0.0 0.00 0.38 0.38 86 1015.6
20260507152316 57 80 0.0 0.0 0.00 0.38 0.38 99 1015.4
20260507145313 57 80 0.0 0.0 0.00 0.38 0.38 99 1015.9
20260507142311 56 80 0.0 0.0 0.00 0.38 0.38 99 1015.8
20260507135310 56 80 0.0 0.0 0.00 0.38 0.38 99 1015.0
20260507132308 56 80 0.0 0.0 0.00 0.38 0.38 99 1014.7
20260507125306 56 80 0.0 0.0 0.00 0.38 0.38 99 1014.5
20260507122301 56 80 0.0 0.0 0.00 0.38 0.38 99 1014.1
20260507115256 56 80 0.0 0.0 0.00 0.38 0.38 99 1013.6
20260507112256 56 80 0.0 0.0 0.00 0.38 0.38 99 1013.2
20260507105253 56 80 0.0 0.0 0.00 0.38 0.38 99 1013.1
20260507102251 56 80 0.0 0.0 0.00 0.38 0.38 99 1012.4
20260507095248 56 80 0.0 0.0 0.00 0.33 0.33 99 1012.7
20260507092247 56 80 0.0 0.0 0.00 0.33 0.33 99 1012.7
20260507085244 56 80 0.0 0.0 0.00 0.33 0.33 99 1012.4
20260507082241 57 80 0.0 0.0 0.00 0.33 0.33 99 1012.4
20260507075236 57 80 0.0 0.0 0.00 0.33 0.33 99 1012.0
20260507072236 59 80 0.0 0.0 0.00 0.33 0.33 99 1011.7
20260507065235 60 80 0.0 0.0 1.02 0.33 0.33 99 1011.6
20260507062231 62 80 0.0 0.0 0.00 0.16 0.16 99 1012.3
20260507055230 62 80 0.0 0.0 0.42 0.07 0.07 99 1012.9
20260507052225 63 80 0.0 0.0 0.00 0.00 0.00 99 1013.2
20260507045223 64 80 0.0 0.0 0.00 0.67 0.67 99 1012.7
20260507042219 64 80 0.0 0.0 0.00 0.67 0.67 99 1012.7
20260507035216 64 80 0.0 0.0 0.00 0.67 0.67 99 1013.0
20260507032211 64 80 0.0 0.0 0.00 0.67 0.67 99 1013.0
20260507025211 64 80 0.0 0.0 0.00 0.67 0.67 99 1012.0
20260507022209 64 80 0.0 0.0 0.00 0.67 0.67 99 1012.4
20260507015209 64 80 0.0 0.0 0.00 0.67 0.67 99 1012.9
20260507012206 64 80 0.0 0.0 0.00 0.67 0.67 99 1012.6
20260507005206 64 80 0.0 0.0 0.00 0.67 0.67 99 1012.2
20260507002201 64 80 0.0 0.0 0.00 0.67 0.67 99 1013.3
20260506235157 69 80 0.0 0.0 0.00 0.67 0.67 99 1012.3
20260506232154 70 80 0.0 0.0 0.12 0.65 0.65 99 1012.0
20260506225154 75 80 0.0 0.0 0.00 0.00 0.00 94 1011.2
20260506222150 75 81 0.0 0.0 0.00 0.00 0.00 92 1010.9
20260506215148 75 82 0.0 0.0 0.00 0.00 0.00 92 1011.4
20260506212147 75 83 0.0 0.0 0.00 0.00 0.00 90 1011.3
20260506205143 76 83 0.0 0.0 0.00 0.00 0.00 89 1011.3
20260506202138 78 83 0.0 0.0 0.00 0.00 0.00 87 1011.5